Language: 


Des rapports , des résumés tant et plus, au choix de chacun....


Données statistiques de la station
Quotidien Rapport Décembre 24, 2017 Unités:  Anglais    Métrique   les deux
« Précédent Jour
Suivant Jour »
Quotidien Hebdomadaire Mensuel Annuel Actuel
  Haut: Bas: Moyen:
Température: TemperatureC °F 8.8 °F 9.8 °F
Pt de rosée: DewpointC °F 9.0 °F 9.7 °F
Humidité: Humidity % 95 % 97 %
Vitesse du vent: WindSpeedKMH mph 6.9 mph 15.9 mph
Rafales: WindSpeedGustKMH mph - -
Vent:- - WSW
Pression: PressurehPa in 1019.9 in -
Précipitation: 0.0 in    
Historical Graphs
 
 
Données statistiques pour Décembre 24, 2017
Heure Température Point de rosée Pression Vent Vitesse du vent Refales Humidité Pluie (taux horaire)
TemperatureC °F DewpointC °F PressurehPa in Calm     Humidity % HourlyPrecipMM in
00:00 10.3 °F 10.0 °F 1030.0 in West 21.2 mph 28.8 mph 98 % 0.0 in
00:03 10.4 °F 10.0 °F 1030.0 in WSW 13.0 mph 28.8 mph 98 % 0.0 in
00:08 10.4 °F 10.0 °F 1030.0 in WSW 20.1 mph 28.8 mph 98 % 0.0 in
00:10 10.4 °F 10.0 °F 1030.0 in WSW 12.2 mph 27.7 mph 98 % 0.0 in
00:15 10.4 °F 10.0 °F 1030.0 in WSW 19.5 mph 27.7 mph 98 % 0.0 in
00:18 10.3 °F 10.0 °F 1030.0 in WSW 16.3 mph 24.8 mph 98 % 0.0 in
00:23 10.3 °F 10.0 °F 1030.0 in WSW 12.6 mph 21.2 mph 98 % 0.0 in
00:24 10.3 °F 10.0 °F 1030.0 in West 23.8 mph 23.8 mph 98 % 0.0 in
00:29 10.3 °F 10.0 °F 1030.0 in WSW 14.0 mph 23.8 mph 98 % 0.0 in
00:30 10.3 °F 10.0 °F 1030.0 in WSW 23.3 mph 23.8 mph 98 % 0.0 in
00:31 10.3 °F 10.0 °F 1030.0 in West 16.6 mph 23.8 mph 98 % 0.0 in
00:36 10.3 °F 10.0 °F 1030.0 in WSW 16.9 mph 27.4 mph 98 % 0.0 in
00:37 10.3 °F 10.0 °F 1030.0 in WSW 20.6 mph 27.4 mph 98 % 0.0 in
00:42 10.3 °F 10.0 °F 1030.0 in WSW 16.6 mph 27.4 mph 98 % 0.0 in
00:43 10.3 °F 10.0 °F 1030.0 in WSW 12.2 mph 25.6 mph 98 % 0.0 in
00:44 10.3 °F 10.0 °F 1030.0 in WSW 11.9 mph 25.6 mph 98 % 0.0 in
00:49 10.3 °F 10.0 °F 1030.0 in WSW 17.7 mph 25.6 mph 98 % 0.0 in
00:54 10.3 °F 10.0 °F 1030.0 in West 11.9 mph 25.3 mph 98 % 0.0 in
00:59 10.3 °F 10.0 °F 1030.0 in WSW 12.2 mph 25.3 mph 98 % 0.0 in
01:04 10.2 °F 10.0 °F 1030.0 in WSW 16.3 mph 20.1 mph 98 % 0.0 in
01:08 10.2 °F 10.0 °F 1030.0 in WSW 16.6 mph 20.9 mph 98 % 0.0 in
01:10 10.2 °F 10.0 °F 1030.0 in WSW 16.6 mph 20.9 mph 98 % 0.0 in
01:15 10.2 °F 10.0 °F 1029.0 in West 14.0 mph 20.9 mph 98 % 0.0 in
01:20 10.2 °F 10.0 °F 1029.0 in WSW 20.6 mph 23.0 mph 98 % 0.0 in
01:21 10.2 °F 10.0 °F 1029.0 in WSW 20.1 mph 23.0 mph 98 % 0.0 in
01:26 10.1 °F 10.0 °F 1029.0 in West 17.2 mph 27.7 mph 98 % 0.0 in
01:29 10.2 °F 10.0 °F 1029.0 in WSW 24.5 mph 27.7 mph 98 % 0.0 in
01:34 10.2 °F 10.0 °F 1029.0 in West 14.0 mph 27.7 mph 98 % 0.0 in
01:39 10.2 °F 10.0 °F 1029.0 in West 14.0 mph 24.5 mph 98 % 0.0 in
01:42 10.2 °F 10.0 °F 1029.0 in West 13.0 mph 24.8 mph 98 % 0.0 in
01:47 10.2 °F 10.0 °F 1029.0 in West 10.1 mph 24.8 mph 98 % 0.0 in
01:49 10.2 °F 10.0 °F 1029.0 in West 13.0 mph 24.8 mph 98 % 0.0 in
01:50 10.2 °F 10.0 °F 1029.0 in WSW 11.9 mph 20.1 mph 98 % 0.0 in
01:55 10.2 °F 10.0 °F 1029.0 in WSW 12.2 mph 16.9 mph 98 % 0.0 in
02:00 10.2 °F 10.0 °F 1029.0 in WSW 12.6 mph 16.3 mph 98 % 0.0 in
02:03 10.2 °F 10.0 °F 1029.0 in WSW 6.9 mph 15.4 mph 98 % 0.0 in
02:06 10.1 °F 10.0 °F 1029.0 in WSW 12.6 mph 20.1 mph 98 % 0.0 in
02:11 10.1 °F 10.0 °F 1029.0 in WSW 17.7 mph 20.9 mph 98 % 0.0 in
02:16 10.1 °F 10.0 °F 1029.0 in West 13.0 mph 20.9 mph 98 % 0.0 in
02:18 10.1 °F 10.0 °F 1029.0 in WSW 16.3 mph 20.9 mph 98 % 0.0 in
02:23 10.1 °F 10.0 °F 1029.0 in West 12.6 mph 21.6 mph 98 % 0.0 in
02:24 10.1 °F 10.0 °F 1029.0 in WSW 19.8 mph 21.6 mph 98 % 0.0 in
02:29 10.1 °F 10.0 °F 1029.0 in WSW 12.6 mph 21.6 mph 98 % 0.0 in
02:31 10.1 °F 10.0 °F 1029.0 in West 11.9 mph 19.8 mph 98 % 0.0 in
02:33 10.1 °F 10.0 °F 1029.0 in SW 13.0 mph 19.8 mph 98 % 0.0 in
02:38 10.1 °F 10.0 °F 1029.0 in WSW 12.2 mph 19.5 mph 98 % 0.0 in
02:40 10.1 °F 10.0 °F 1029.0 in WSW 12.2 mph 20.6 mph 98 % 0.0 in
02:44 10.1 °F 10.0 °F 1029.0 in WSW 10.1 mph 20.6 mph 98 % 0.0 in
02:46 10.1 °F 10.0 °F 1029.0 in WSW 11.9 mph 20.6 mph 98 % 0.0 in
02:52 10.1 °F 10.0 °F 1029.0 in WSW 9.3 mph 16.6 mph 98 % 0.0 in
02:55 10.1 °F 10.0 °F 1029.0 in WSW 8.7 mph 15.8 mph 98 % 0.0 in
03:00 10.1 °F 10.0 °F 1029.0 in WSW 11.9 mph 15.4 mph 98 % 0.0 in
03:05 10.1 °F 10.0 °F 1029.0 in WSW 13.7 mph 15.8 mph 98 % 0.0 in
03:08 10.1 °F 10.0 °F 1029.0 in WSW 12.6 mph 20.9 mph 98 % 0.0 in
03:10 10.1 °F 10.0 °F 1029.0 in WSW 12.6 mph 20.9 mph 98 % 0.0 in
03:16 10.1 °F 10.0 °F 1029.0 in WSW 10.1 mph 16.6 mph 98 % 0.0 in
03:17 10.1 °F 10.0 °F 1029.0 in WSW 10.5 mph 16.6 mph 98 % 0.0 in
03:22 10.1 °F 10.0 °F 1029.0 in WSW 10.5 mph 16.3 mph 98 % 0.0 in
03:23 10.1 °F 10.0 °F 1029.0 in WSW 10.1 mph 16.3 mph 98 % 0.0 in
03:28 10.0 °F 10.0 °F 1029.0 in WSW 14.0 mph 14.0 mph 98 % 0.0 in
03:31 10.0 °F 10.0 °F 1029.0 in WSW 17.2 mph 17.2 mph 98 % 0.0 in
03:32 10.0 °F 10.0 °F 1029.0 in WSW 13.0 mph 17.2 mph 98 % 0.0 in
03:37 10.0 °F 10.0 °F 1029.0 in WSW 10.5 mph 19.1 mph 98 % 0.0 in
03:39 10.0 °F 10.0 °F 1029.0 in WSW 9.3 mph 19.1 mph 98 % 0.0 in
03:40 10.0 °F 10.0 °F 1029.0 in WSW 9.0 mph 19.1 mph 98 % 0.0 in
03:45 10.0 °F 10.0 °F 1029.0 in SW 16.9 mph 16.9 mph 98 % 0.0 in
03:49 10.0 °F 10.0 °F 1029.0 in WSW 6.9 mph 19.8 mph 98 % 0.0 in
03:52 10.0 °F 10.0 °F 1029.0 in WSW 16.6 mph 19.8 mph 98 % 0.0 in
03:57 10.0 °F 10.0 °F 1029.0 in WSW 17.7 mph 23.8 mph 98 % 0.0 in
03:59 10.0 °F 10.0 °F 1029.0 in WSW 16.3 mph 23.8 mph 98 % 0.0 in
04:04 10.1 °F 10.0 °F 1029.0 in WSW 13.7 mph 23.0 mph 98 % 0.0 in
04:08 10.0 °F 10.0 °F 1029.0 in WSW 19.8 mph 20.1 mph 98 % 0.0 in
04:13 10.0 °F 10.0 °F 1029.0 in WSW 17.7 mph 20.1 mph 98 % 0.0 in
04:17 10.0 °F 10.0 °F 1029.0 in WSW 20.1 mph 20.1 mph 98 % 0.0 in
04:22 10.0 °F 10.0 °F 1029.0 in WSW 19.1 mph 24.5 mph 98 % 0.0 in
04:23 10.0 °F 10.0 °F 1029.0 in West 16.3 mph 24.5 mph 98 % 0.0 in
04:27 10.0 °F 10.0 °F 1028.0 in West 19.5 mph 25.9 mph 98 % 0.0 in
04:29 10.0 °F 10.0 °F 1028.0 in West 17.2 mph 25.9 mph 98 % 0.0 in
04:34 10.1 °F 10.0 °F 1028.0 in West 17.2 mph 25.9 mph 98 % 0.0 in
04:39 10.1 °F 10.0 °F 1028.0 in WSW 13.0 mph 24.5 mph 98 % 0.0 in
04:43 10.1 °F 10.0 °F 1028.0 in WSW 14.0 mph 22.7 mph 98 % 0.0 in
04:46 10.1 °F 10.0 °F 1028.0 in West 17.2 mph 22.7 mph 98 % 0.0 in
04:51 10.1 °F 10.0 °F 1028.0 in WSW 11.9 mph 20.9 mph 98 % 0.0 in
04:53 10.1 °F 10.0 °F 1028.0 in West 16.9 mph 20.9 mph 98 % 0.0 in
04:58 10.1 °F 10.0 °F 1028.0 in WSW 12.2 mph 28.5 mph 98 % 0.0 in
04:59 10.1 °F 10.0 °F 1028.0 in WSW 12.2 mph 28.5 mph 98 % 0.0 in
05:04 10.1 °F 10.0 °F 1028.0 in WSW 16.6 mph 28.5 mph 98 % 0.0 in
05:09 10.0 °F 10.0 °F 1028.0 in WSW 16.6 mph 25.9 mph 98 % 0.0 in
05:12 10.1 °F 10.0 °F 1028.0 in West 23.8 mph 25.9 mph 98 % 0.0 in
05:17 10.1 °F 10.0 °F 1028.0 in WSW 16.3 mph 25.9 mph 98 % 0.0 in
05:18 10.1 °F 10.0 °F 1028.0 in West 13.0 mph 23.8 mph 98 % 0.0 in
05:23 10.1 °F 10.0 °F 1028.0 in West 10.1 mph 25.3 mph 98 % 0.0 in
05:25 10.1 °F 10.0 °F 1028.0 in West 22.4 mph 25.3 mph 98 % 0.0 in
05:30 10.1 °F 10.0 °F 1027.0 in WSW 18.0 mph 24.8 mph 98 % 0.0 in
05:34 10.1 °F 10.0 °F 1027.0 in WSW 13.7 mph 24.8 mph 98 % 0.0 in
05:35 10.1 °F 10.0 °F 1027.0 in WSW 10.1 mph 24.8 mph 98 % 0.0 in
05:40 10.1 °F 10.0 °F 1026.0 in WSW 20.1 mph 25.3 mph 98 % 0.0 in
05:43 10.1 °F 10.0 °F 1026.0 in WSW 16.6 mph 25.3 mph 98 % 0.0 in
05:48 10.1 °F 10.0 °F 1026.0 in WSW 16.3 mph 25.3 mph 98 % 0.0 in
05:50 10.1 °F 10.0 °F 1026.0 in WSW 13.7 mph 25.3 mph 98 % 0.0 in
05:54 10.0 °F 10.0 °F 1026.0 in WSW 13.7 mph 20.9 mph 98 % 0.0 in
05:56 10.0 °F 10.0 °F 1026.0 in West 24.5 mph 24.5 mph 98 % 0.0 in
06:01 10.1 °F 10.0 °F 1027.0 in WSW 17.2 mph 27.4 mph 98 % 0.0 in
06:06 10.1 °F 10.0 °F 1027.0 in West 20.6 mph 36.0 mph 98 % 0.0 in
06:07 10.1 °F 10.0 °F 1027.0 in WSW 13.0 mph 36.0 mph 98 % 0.0 in
06:12 10.1 °F 10.0 °F 1026.0 in WSW 20.1 mph 36.0 mph 97 % 0.0 in
06:13 10.1 °F 10.0 °F 1026.0 in West 14.0 mph 31.4 mph 97 % 0.0 in
06:18 10.1 °F 10.0 °F 1026.0 in West 13.7 mph 25.3 mph 97 % 0.0 in
06:20 10.1 °F 10.0 °F 1026.0 in WSW 12.6 mph 25.3 mph 97 % 0.0 in
06:23 10.1 °F 10.0 °F 1026.0 in WSW 27.4 mph 32.0 mph 97 % 0.0 in
06:27 10.1 °F 10.0 °F 1026.0 in WSW 17.2 mph 32.0 mph 97 % 0.0 in
06:32 10.1 °F 10.0 °F 1026.0 in SW 17.7 mph 32.0 mph 97 % 0.0 in
06:37 10.1 °F 10.0 °F 1026.0 in WSW 23.3 mph 35.2 mph 97 % 0.0 in
06:41 10.1 °F 10.0 °F 1026.0 in WSW 13.0 mph 35.2 mph 97 % 0.0 in
06:42 10.1 °F 10.0 °F 1026.0 in West 17.7 mph 35.2 mph 97 % 0.0 in
06:47 10.1 °F 10.0 °F 1026.0 in WSW 21.2 mph 28.5 mph 97 % 0.0 in
06:48 10.1 °F 10.0 °F 1026.0 in WSW 31.4 mph 31.4 mph 97 % 0.0 in
06:52 10.1 °F 10.0 °F 1026.0 in WSW 26.7 mph 32.3 mph 97 % 0.0 in
06:57 10.1 °F 10.0 °F 1027.0 in West 28.8 mph 32.3 mph 98 % 0.0 in
07:00 10.1 °F 10.0 °F 1027.0 in West 27.7 mph 31.4 mph 98 % 0.0 in
07:05 10.1 °F 10.0 °F 1027.0 in West 17.7 mph 29.9 mph 98 % 0.0 in
07:06 10.1 °F 10.0 °F 1027.0 in West 17.7 mph 29.9 mph 98 % 0.0 in
07:11 10.1 °F 10.0 °F 1027.0 in WSW 22.7 mph 31.7 mph 98 % 0.0 in
07:16 10.1 °F 10.0 °F 1027.0 in West 20.9 mph 33.1 mph 98 % 0.0 in
07:17 10.2 °F 10.0 °F 1027.0 in West 25.6 mph 33.1 mph 97 % 0.0 in
07:20 10.2 °F 10.0 °F 1027.0 in WSW 10.1 mph 33.1 mph 97 % 0.0 in
07:25 10.2 °F 10.0 °F 1027.0 in WSW 17.2 mph 33.1 mph 97 % 0.0 in
07:30 10.2 °F 10.0 °F 1027.0 in WSW 17.2 mph 27.4 mph 97 % 0.0 in
07:31 10.2 °F 10.0 °F 1027.0 in West 17.7 mph 27.4 mph 97 % 0.0 in
07:35 10.2 °F 10.0 °F 1027.0 in WSW 21.6 mph 27.4 mph 97 % 0.0 in
07:37 10.2 °F 10.0 °F 1027.0 in WSW 20.1 mph 27.4 mph 97 % 0.0 in
07:40 10.2 °F 10.0 °F 1027.0 in West 17.7 mph 23.3 mph 97 % 0.0 in
07:42 10.2 °F 10.0 °F 1026.0 in West 17.2 mph 23.3 mph 97 % 0.0 in
07:47 10.2 °F 10.0 °F 1026.0 in West 16.3 mph 24.5 mph 97 % 0.0 in
07:48 10.2 °F 10.0 °F 1026.0 in WSW 12.2 mph 24.5 mph 97 % 0.0 in
07:53 10.3 °F 10.0 °F 1026.0 in WSW 16.9 mph 24.5 mph 97 % 0.0 in
07:58 10.3 °F 10.0 °F 1027.0 in WSW 20.6 mph 23.3 mph 97 % 0.0 in
07:59 10.3 °F 10.0 °F 1027.0 in West 14.0 mph 23.3 mph 97 % 0.0 in
08:04 10.3 °F 10.0 °F 1027.0 in SW 20.9 mph 32.0 mph 97 % 0.0 in
08:05 10.3 °F 10.0 °F 1027.0 in West 19.5 mph 32.0 mph 97 % 0.0 in
08:10 10.3 °F 10.0 °F 1027.0 in WNW 13.7 mph 32.0 mph 97 % 0.0 in
08:12 10.3 °F 10.0 °F 1027.0 in WSW 20.9 mph 21.2 mph 97 % 0.0 in
08:15 10.3 °F 10.0 °F 1027.0 in WSW 15.1 mph 24.5 mph 96 % 0.0 in
08:18 10.3 °F 10.0 °F 1027.0 in West 20.6 mph 24.5 mph 96 % 0.0 in
08:22 10.3 °F 10.0 °F 1027.0 in West 11.9 mph 24.5 mph 96 % 0.0 in
08:24 10.3 °F 10.0 °F 1027.0 in West 19.8 mph 23.8 mph 96 % 0.0 in
08:29 10.3 °F 10.0 °F 1027.0 in WSW 17.2 mph 22.4 mph 96 % 0.0 in
08:30 10.3 °F 10.0 °F 1027.0 in WSW 20.6 mph 22.4 mph 96 % 0.0 in
08:35 10.3 °F 10.0 °F 1027.0 in WSW 16.9 mph 26.2 mph 97 % 0.0 in
08:37 10.3 °F 10.0 °F 1027.0 in WSW 23.3 mph 26.2 mph 97 % 0.0 in
08:41 10.3 °F 10.0 °F 1027.0 in WSW 20.9 mph 24.5 mph 97 % 0.0 in
08:43 10.3 °F 10.0 °F 1027.0 in WSW 16.3 mph 24.5 mph 97 % 0.0 in
08:45 10.3 °F 10.0 °F 1027.0 in WSW 15.8 mph 24.5 mph 97 % 0.0 in
08:50 10.2 °F 10.0 °F 1027.0 in West 20.9 mph 22.4 mph 97 % 0.0 in
08:51 10.2 °F 10.0 °F 1027.0 in WSW 18.0 mph 21.6 mph 97 % 0.0 in
08:52 10.2 °F 10.0 °F 1027.0 in West 14.3 mph 21.2 mph 97 % 0.0 in
08:57 10.2 °F 10.0 °F 1026.0 in WSW 27.7 mph 27.7 mph 97 % 0.0 in
08:59 10.2 °F 10.0 °F 1026.0 in WSW 16.6 mph 27.7 mph 97 % 0.0 in
09:04 10.2 °F 10.0 °F 1026.0 in West 13.7 mph 27.7 mph 97 % 0.0 in
09:05 10.2 °F 10.0 °F 1026.0 in WSW 16.9 mph 27.7 mph 97 % 0.0 in
09:09 10.3 °F 10.0 °F 1026.0 in WSW 15.8 mph 24.8 mph 97 % 0.0 in
09:12 10.3 °F 10.0 °F 1027.0 in WSW 21.9 mph 26.2 mph 97 % 0.0 in
09:17 10.3 °F 10.0 °F 1027.0 in West 24.8 mph 27.4 mph 97 % 0.0 in
09:18 10.3 °F 10.0 °F 1027.0 in WSW 16.6 mph 27.4 mph 97 % 0.0 in
09:22 10.3 °F 10.0 °F 1027.0 in WSW 16.3 mph 27.4 mph 97 % 0.0 in
09:23 10.3 °F 10.0 °F 1027.0 in WSW 22.7 mph 26.2 mph 97 % 0.0 in
09:28 10.4 °F 10.0 °F 1027.0 in WSW 19.1 mph 26.2 mph 97 % 0.0 in
09:30 10.4 °F 10.0 °F 1027.0 in WSW 14.3 mph 26.2 mph 97 % 0.0 in
09:35 10.4 °F 10.0 °F 1027.0 in West 12.6 mph 21.2 mph 97 % 0.0 in
09:37 10.4 °F 10.0 °F 1027.0 in WSW 14.3 mph 20.1 mph 97 % 0.0 in
09:42 10.3 °F 10.0 °F 1027.0 in West 13.7 mph 20.1 mph 97 % 0.0 in
09:44 10.3 °F 10.0 °F 1027.0 in WSW 20.1 mph 20.9 mph 97 % 0.0 in
09:47 10.3 °F 10.0 °F 1027.0 in WSW 13.7 mph 20.9 mph 98 % 0.0 in
09:52 10.3 °F 10.0 °F 1027.0 in WSW 16.3 mph 25.3 mph 98 % 0.0 in
09:56 10.3 °F 10.0 °F 1027.0 in WSW 14.0 mph 25.3 mph 98 % 0.0 in
10:01 10.3 °F 10.0 °F 1027.0 in WSW 15.8 mph 23.3 mph 98 % 0.0 in
10:06 10.3 °F 10.0 °F 1027.0 in WSW 20.1 mph 23.8 mph 98 % 0.0 in
10:07 10.3 °F 10.0 °F 1027.0 in WSW 15.8 mph 23.8 mph 98 % 0.0 in
10:12 10.3 °F 10.0 °F 1027.0 in WSW 11.9 mph 23.8 mph 98 % 0.0 in
10:13 10.3 °F 10.0 °F 1027.0 in WSW 13.7 mph 23.8 mph 98 % 0.0 in
10:18 10.3 °F 10.0 °F 1027.0 in WSW 19.8 mph 21.6 mph 98 % 0.0 in
10:20 10.3 °F 10.0 °F 1027.0 in SW 16.9 mph 21.6 mph 98 % 0.0 in
10:21 10.3 °F 10.0 °F 1027.0 in WSW 10.5 mph 21.6 mph 98 % 0.0 in
10:26 10.3 °F 10.0 °F 1027.0 in WSW 17.2 mph 21.6 mph 98 % 0.0 in
10:31 10.3 °F 10.0 °F 1027.0 in WSW 11.9 mph 23.0 mph 98 % 0.0 in
10:33 10.3 °F 10.0 °F 1027.0 in WSW 20.6 mph 23.8 mph 98 % 0.0 in
10:34 10.3 °F 10.0 °F 1027.0 in SW 12.6 mph 23.8 mph 98 % 0.0 in
10:39 10.3 °F 10.0 °F 1027.0 in WSW 17.2 mph 23.8 mph 98 % 0.0 in
10:41 10.3 °F 10.0 °F 1027.0 in WSW 16.3 mph 23.8 mph 98 % 0.0 in
10:46 10.3 °F 10.0 °F 1027.0 in WSW 21.2 mph 26.7 mph 98 % 0.0 in
10:47 10.3 °F 10.0 °F 1027.0 in SW 12.6 mph 26.7 mph 98 % 0.0 in
10:49 10.3 °F 10.0 °F 1027.0 in WSW 20.9 mph 26.7 mph 98 % 0.0 in
10:54 10.3 °F 10.0 °F 1027.0 in WSW 21.2 mph 24.5 mph 98 % 0.0 in
10:55 10.3 °F 10.0 °F 1027.0 in WSW 20.6 mph 24.5 mph 98 % 0.0 in
11:00 10.3 °F 10.0 °F 1027.0 in WSW 17.2 mph 27.4 mph 98 % 0.0 in
11:05 10.3 °F 10.0 °F 1027.0 in WSW 20.9 mph 27.4 mph 98 % 0.0 in
11:10 10.3 °F 10.0 °F 1027.0 in WSW 15.4 mph 24.8 mph 98 % 0.0 in
11:12 10.3 °F 10.0 °F 1027.0 in WSW 20.9 mph 24.8 mph 98 % 0.0 in
11:14 10.3 °F 10.0 °F 1027.0 in WSW 17.7 mph 24.5 mph 98 % 0.0 in
11:19 10.4 °F 10.0 °F 1027.0 in WSW 17.2 mph 21.2 mph 98 % 0.0 in
11:22 10.4 °F 10.0 °F 1027.0 in WSW 16.6 mph 21.2 mph 98 % 0.0 in
11:23 10.4 °F 10.0 °F 1027.0 in WSW 16.6 mph 21.2 mph 98 % 0.0 in
11:28 10.4 °F 10.0 °F 1027.0 in WSW 17.2 mph 28.0 mph 98 % 0.0 in
11:33 10.5 °F 11.0 °F 1027.0 in WSW 20.6 mph 28.0 mph 98 % 0.0 in
11:38 10.5 °F 11.0 °F 1027.0 in West 15.4 mph 23.3 mph 98 % 0.0 in
11:43 10.5 °F 11.0 °F 1027.0 in WSW 14.0 mph 23.3 mph 98 % 0.0 in
11:48 10.6 °F 11.0 °F 1027.0 in WSW 14.0 mph 26.7 mph 98 % 0.0 in
11:51 10.5 °F 11.0 °F 1027.0 in WSW 19.1 mph 26.7 mph 98 % 0.0 in
11:56 10.6 °F 11.0 °F 1027.0 in WSW 20.9 mph 23.8 mph 98 % 0.0 in
11:57 10.6 °F 11.0 °F 1027.0 in WSW 16.9 mph 23.8 mph 98 % 0.0 in
12:02 10.6 °F 11.0 °F 1027.0 in SW 16.3 mph 24.5 mph 98 % 0.0 in
12:03 10.6 °F 11.0 °F 1027.0 in WSW 16.3 mph 24.5 mph 98 % 0.0 in
12:08 10.6 °F 11.0 °F 1027.0 in WSW 18.0 mph 27.7 mph 98 % 0.0 in
12:09 10.6 °F 11.0 °F 1027.0 in WSW 16.3 mph 27.7 mph 98 % 0.0 in
12:14 10.6 °F 11.0 °F 1026.0 in WSW 13.0 mph 28.8 mph 98 % 0.0 in
12:19 10.6 °F 11.0 °F 1026.0 in West 14.0 mph 28.8 mph 98 % 0.0 in
12:21 10.6 °F 11.0 °F 1026.0 in WSW 16.6 mph 21.9 mph 98 % 0.0 in
12:25 10.7 °F 11.0 °F 1026.0 in WSW 12.6 mph 21.2 mph 98 % 0.0 in
12:30 10.7 °F 11.0 °F 1026.0 in WSW 16.3 mph 22.4 mph 98 % 0.0 in
12:35 10.7 °F 11.0 °F 1026.0 in WSW 21.9 mph 24.5 mph 98 % 0.0 in
12:40 10.7 °F 11.0 °F 1026.0 in WSW 17.2 mph 28.5 mph 98 % 0.0 in
12:45 10.7 °F 11.0 °F 1026.0 in WSW 14.0 mph 28.5 mph 98 % 0.0 in
12:50 10.7 °F 11.0 °F 1026.0 in WSW 17.2 mph 24.5 mph 98 % 0.0 in
12:55 10.7 °F 10.0 °F 1026.0 in WSW 15.8 mph 25.3 mph 97 % 0.0 in
12:56 10.7 °F 10.0 °F 1026.0 in WSW 21.9 mph 25.3 mph 97 % 0.0 in
13:00 10.7 °F 10.0 °F 1026.0 in WSW 21.2 mph 26.7 mph 97 % 0.0 in
13:02 10.7 °F 10.0 °F 1026.0 in WSW 18.3 mph 26.7 mph 97 % 0.0 in
13:07 10.6 °F 10.0 °F 1026.0 in WSW 20.9 mph 25.6 mph 97 % 0.0 in
13:09 10.6 °F 10.0 °F 1026.0 in WSW 24.8 mph 25.6 mph 97 % 0.0 in
13:14 10.6 °F 10.0 °F 1026.0 in WSW 16.9 mph 28.5 mph 96 % 0.0 in
13:15 10.6 °F 10.0 °F 1026.0 in WSW 15.8 mph 28.5 mph 96 % 0.0 in
13:20 10.6 °F 10.0 °F 1026.0 in WSW 20.9 mph 28.5 mph 96 % 0.0 in
13:22 10.6 °F 10.0 °F 1026.0 in WSW 20.6 mph 27.4 mph 96 % 0.0 in
13:23 10.6 °F 10.0 °F 1026.0 in WSW 19.1 mph 27.4 mph 96 % 0.0 in
13:28 10.5 °F 10.0 °F 1024.9 in WSW 17.7 mph 31.7 mph 96 % 0.0 in
13:33 10.6 °F 10.0 °F 1024.9 in WSW 12.6 mph 31.7 mph 96 % 0.0 in
13:34 10.6 °F 10.0 °F 1024.9 in WSW 20.6 mph 31.7 mph 96 % 0.0 in
13:39 10.6 °F 10.0 °F 1024.9 in SW 12.2 mph 21.2 mph 96 % 0.0 in
13:40 10.6 °F 10.0 °F 1024.9 in WSW 25.3 mph 25.3 mph 96 % 0.0 in
13:45 10.5 °F 10.0 °F 1024.9 in WSW 18.0 mph 25.3 mph 96 % 0.0 in
13:50 10.5 °F 10.0 °F 1024.9 in West 20.1 mph 25.3 mph 96 % 0.0 in
13:53 10.5 °F 10.0 °F 1024.9 in WSW 21.6 mph 24.8 mph 96 % 0.0 in
13:58 10.4 °F 10.0 °F 1023.9 in WSW 23.3 mph 28.8 mph 95 % 0.0 in
14:01 10.4 °F 10.0 °F 1023.9 in WSW 18.3 mph 28.8 mph 95 % 0.0 in
14:03 10.4 °F 10.0 °F 1023.9 in WSW 16.6 mph 28.8 mph 96 % 0.0 in
14:07 10.4 °F 10.0 °F 1023.9 in WSW 19.5 mph 28.5 mph 95 % 0.0 in
14:10 10.5 °F 10.0 °F 1023.9 in WSW 16.3 mph 27.7 mph 95 % 0.0 in
14:12 10.5 °F 10.0 °F 1023.9 in WSW 16.9 mph 27.7 mph 95 % 0.0 in
14:17 10.5 °F 10.0 °F 1023.9 in WSW 16.3 mph 27.0 mph 95 % 0.0 in
14:20 10.5 °F 10.0 °F 1023.9 in WSW 16.3 mph 27.0 mph 95 % 0.0 in
14:25 10.5 °F 10.0 °F 1023.9 in WSW 19.1 mph 22.4 mph 95 % 0.0 in
14:26 10.5 °F 10.0 °F 1023.9 in SW 15.8 mph 22.4 mph 95 % 0.0 in
14:29 10.5 °F 10.0 °F 1023.9 in WSW 13.7 mph 22.4 mph 95 % 0.0 in
14:33 10.4 °F 10.0 °F 1023.9 in WSW 17.7 mph 23.3 mph 95 % 0.0 in
14:38 10.4 °F 10.0 °F 1023.9 in West 16.6 mph 27.4 mph 96 % 0.0 in
14:43 10.3 °F 10.0 °F 1024.9 in West 21.2 mph 27.4 mph 95 % 0.0 in
14:46 10.3 °F 10.0 °F 1024.9 in WSW 13.0 mph 24.8 mph 95 % 0.0 in
14:51 10.3 °F 10.0 °F 1024.9 in WSW 15.8 mph 24.8 mph 95 % 0.0 in
14:53 10.3 °F 10.0 °F 1024.9 in SW 14.3 mph 24.8 mph 95 % 0.0 in
14:56 10.3 °F 10.0 °F 1024.9 in SW 15.8 mph 20.6 mph 95 % 0.0 in
15:01 10.3 °F 10.0 °F 1024.9 in SW 13.7 mph 22.4 mph 95 % 0.0 in
15:06 10.3 °F 10.0 °F 1024.9 in SW 21.2 mph 22.4 mph 95 % 0.0 in
15:11 10.2 °F 10.0 °F 1023.9 in WSW 12.2 mph 22.4 mph 95 % 0.0 in
15:13 10.2 °F 10.0 °F 1023.9 in WSW 15.4 mph 21.2 mph 95 % 0.0 in
15:18 10.1 °F 9.0 °F 1023.9 in WSW 11.9 mph 21.2 mph 95 % 0.0 in
15:20 10.1 °F 9.0 °F 1023.9 in WSW 16.9 mph 20.9 mph 95 % 0.0 in
15:25 10.1 °F 9.0 °F 1023.9 in WSW 14.0 mph 20.9 mph 95 % 0.0 in
15:28 10.0 °F 9.0 °F 1023.9 in SW 10.1 mph 20.9 mph 95 % 0.0 in
15:30 10.0 °F 9.0 °F 1023.9 in WSW 19.8 mph 20.9 mph 95 % 0.0 in
15:35 10.0 °F 9.0 °F 1023.9 in WSW 25.6 mph 26.7 mph 95 % 0.0 in
15:37 9.9 °F 9.0 °F 1023.9 in SW 15.1 mph 27.7 mph 95 % 0.0 in
15:42 9.9 °F 9.0 °F 1024.9 in WSW 22.7 mph 27.7 mph 95 % 0.0 in
15:47 9.8 °F 9.0 °F 1024.9 in WSW 13.7 mph 25.6 mph 95 % 0.0 in
15:50 9.8 °F 9.0 °F 1024.9 in WSW 14.0 mph 25.6 mph 96 % 0.0 in
15:52 9.8 °F 9.0 °F 1024.9 in WSW 16.6 mph 21.2 mph 96 % 0.0 in
15:57 9.7 °F 9.0 °F 1024.9 in WSW 20.9 mph 27.7 mph 96 % 0.0 in
16:00 9.7 °F 9.0 °F 1024.9 in SW 20.9 mph 27.7 mph 95 % 0.0 in
16:05 9.6 °F 9.0 °F 1024.9 in West 24.8 mph 32.0 mph 95 % 0.0 in
16:10 9.5 °F 9.0 °F 1024.9 in WSW 23.3 mph 32.0 mph 95 % 0.0 in
16:11 9.5 °F 9.0 °F 1024.9 in WSW 20.6 mph 32.0 mph 95 % 0.0 in
16:16 9.5 °F 9.0 °F 1024.9 in WSW 14.0 mph 24.5 mph 95 % 0.0 in
16:19 9.4 °F 9.0 °F 1024.9 in WSW 17.2 mph 24.5 mph 95 % 0.0 in
16:21 9.4 °F 9.0 °F 1024.9 in WSW 16.3 mph 21.2 mph 95 % 0.0 in
16:26 9.4 °F 9.0 °F 1024.9 in WSW 16.3 mph 21.2 mph 95 % 0.0 in
16:27 9.4 °F 9.0 °F 1024.9 in WSW 9.7 mph 21.2 mph 95 % 0.0 in
16:29 9.4 °F 9.0 °F 1024.9 in WSW 16.9 mph 21.2 mph 95 % 0.0 in
16:34 9.3 °F 9.0 °F 1024.9 in WSW 20.6 mph 24.5 mph 96 % 0.0 in
16:36 9.3 °F 9.0 °F 1024.9 in WSW 16.3 mph 24.5 mph 96 % 0.0 in
16:37 9.3 °F 9.0 °F 1024.9 in WSW 13.7 mph 24.5 mph 96 % 0.0 in
16:42 9.3 °F 9.0 °F 1024.9 in WSW 15.8 mph 24.5 mph 96 % 0.0 in
16:46 9.3 °F 9.0 °F 1024.9 in West 13.7 mph 21.2 mph 96 % 0.0 in
16:51 9.3 °F 9.0 °F 1024.9 in West 19.1 mph 21.2 mph 96 % 0.0 in
16:53 9.2 °F 9.0 °F 1024.9 in SSW 19.8 mph 25.3 mph 96 % 0.0 in
16:59 9.2 °F 9.0 °F 1023.9 in WSW 13.0 mph 25.3 mph 96 % 0.0 in
17:00 9.2 °F 9.0 °F 1023.9 in WSW 16.6 mph 25.3 mph 96 % 0.0 in
17:05 9.2 °F 9.0 °F 1023.9 in WSW 17.2 mph 20.9 mph 96 % 0.0 in
17:06 9.2 °F 9.0 °F 1023.9 in SW 21.6 mph 21.6 mph 96 % 0.0 in
17:10 9.2 °F 9.0 °F 1023.9 in WSW 18.3 mph 21.6 mph 96 % 0.0 in
17:12 9.2 °F 9.0 °F 1023.9 in WSW 19.5 mph 22.4 mph 96 % 0.0 in
17:17 9.2 °F 9.0 °F 1023.9 in West 17.7 mph 23.8 mph 95 % 0.0 in
17:22 9.2 °F 9.0 °F 1023.9 in WSW 15.4 mph 28.5 mph 95 % 0.0 in
17:27 9.2 °F 9.0 °F 1022.9 in SW 23.8 mph 28.5 mph 95 % 0.0 in
17:29 9.2 °F 9.0 °F 1022.9 in WSW 15.8 mph 23.8 mph 95 % 0.0 in
17:34 9.1 °F 9.0 °F 1022.9 in SSW 20.1 mph 27.0 mph 95 % 0.0 in
17:35 9.1 °F 9.0 °F 1022.9 in WSW 16.3 mph 27.0 mph 95 % 0.0 in
17:40 9.0 °F 9.0 °F 1022.9 in WSW 20.6 mph 27.0 mph 96 % 0.0 in
17:45 8.9 °F 9.0 °F 1022.9 in SW 16.6 mph 23.8 mph 96 % 0.0 in
17:48 8.9 °F 9.0 °F 1022.9 in WSW 20.1 mph 21.9 mph 97 % 0.0 in
17:52 8.9 °F 9.0 °F 1022.9 in SSW 13.0 mph 21.9 mph 97 % 0.0 in
17:57 8.9 °F 9.0 °F 1022.9 in SSW 16.9 mph 21.9 mph 97 % 0.0 in
18:02 8.9 °F 9.0 °F 1022.9 in WSW 15.4 mph 21.9 mph 97 % 0.0 in
18:05 8.9 °F 9.0 °F 1022.9 in West 11.9 mph 21.9 mph 97 % 0.0 in
18:10 8.9 °F 9.0 °F 1022.9 in SW 16.9 mph 25.9 mph 97 % 0.0 in
18:11 8.9 °F 9.0 °F 1022.9 in SW 12.6 mph 25.9 mph 97 % 0.0 in
18:16 8.9 °F 9.0 °F 1022.9 in SW 12.6 mph 25.9 mph 97 % 0.0 in
18:18 8.9 °F 9.0 °F 1022.9 in SW 20.9 mph 25.9 mph 97 % 0.0 in
18:23 8.9 °F 9.0 °F 1022.9 in WSW 16.6 mph 21.2 mph 97 % 0.0 in
18:24 8.9 °F 9.0 °F 1022.9 in SW 22.7 mph 22.7 mph 97 % 0.0 in
18:29 8.9 °F 9.0 °F 1022.9 in SW 11.9 mph 22.7 mph 97 % 0.0 in
18:34 8.9 °F 9.0 °F 1022.9 in WSW 16.9 mph 22.7 mph 97 % 0.0 in
18:37 8.9 °F 9.0 °F 1022.9 in WSW 18.3 mph 24.5 mph 97 % 0.0 in
18:42 8.8 °F 9.0 °F 1021.9 in SSW 16.6 mph 24.5 mph 98 % 0.0 in
18:43 8.8 °F 9.0 °F 1021.9 in WSW 18.3 mph 24.5 mph 98 % 0.0 in
18:44 8.8 °F 9.0 °F 1021.9 in WSW 20.9 mph 24.5 mph 98 % 0.0 in
18:49 8.8 °F 9.0 °F 1021.9 in WSW 12.6 mph 21.2 mph 98 % 0.0 in
18:50 8.8 °F 9.0 °F 1021.9 in SW 21.2 mph 21.2 mph 98 % 0.0 in
18:55 8.8 °F 9.0 °F 1021.9 in WSW 10.5 mph 21.2 mph 98 % 0.0 in
19:00 8.8 °F 9.0 °F 1021.9 in SW 12.2 mph 20.1 mph 98 % 0.0 in
19:03 8.8 °F 9.0 °F 1021.9 in SW 9.3 mph 17.2 mph 98 % 0.0 in
19:08 8.8 °F 9.0 °F 1021.9 in WSW 14.0 mph 16.9 mph 98 % 0.0 in
19:11 8.8 °F 9.0 °F 1021.9 in SSW 11.9 mph 16.9 mph 98 % 0.0 in
19:14 8.8 °F 9.0 °F 1021.9 in SW 10.5 mph 16.9 mph 98 % 0.0 in
19:19 8.8 °F 9.0 °F 1021.9 in WSW 12.2 mph 15.8 mph 98 % 0.0 in
19:23 8.8 °F 9.0 °F 1021.9 in WSW 10.1 mph 18.0 mph 98 % 0.0 in
19:28 8.8 °F 9.0 °F 1022.9 in SW 10.5 mph 18.0 mph 98 % 0.0 in
19:29 8.8 °F 9.0 °F 1022.9 in SSW 17.2 mph 18.0 mph 98 % 0.0 in
19:34 8.9 °F 9.0 °F 1022.9 in WSW 11.6 mph 21.2 mph 98 % 0.0 in
19:36 8.9 °F 9.0 °F 1022.9 in WSW 9.7 mph 21.2 mph 98 % 0.0 in
19:41 8.9 °F 9.0 °F 1022.9 in WSW 13.7 mph 21.2 mph 98 % 0.0 in
19:46 9.0 °F 9.0 °F 1022.9 in SW 14.0 mph 21.6 mph 98 % 0.0 in
19:47 9.0 °F 9.0 °F 1022.9 in WSW 16.3 mph 21.6 mph 98 % 0.0 in
19:48 9.0 °F 9.0 °F 1022.9 in WSW 13.7 mph 21.6 mph 98 % 0.0 in
19:52 9.0 °F 9.0 °F 1022.9 in SW 17.7 mph 21.6 mph 98 % 0.0 in
19:57 9.0 °F 9.0 °F 1023.9 in WSW 10.1 mph 18.0 mph 98 % 0.0 in
19:58 9.0 °F 9.0 °F 1023.9 in SW 13.0 mph 18.0 mph 98 % 0.0 in
20:03 9.0 °F 9.0 °F 1023.9 in WSW 15.8 mph 18.0 mph 98 % 0.0 in
20:04 9.0 °F 9.0 °F 1023.9 in SSW 10.5 mph 18.0 mph 98 % 0.0 in
20:05 9.0 °F 9.0 °F 1023.9 in SSW 9.3 mph 18.0 mph 98 % 0.0 in
20:10 8.9 °F 9.0 °F 1023.9 in SW 10.1 mph 17.7 mph 98 % 0.0 in
20:12 8.9 °F 9.0 °F 1022.9 in WSW 10.5 mph 16.3 mph 98 % 0.0 in
20:13 8.9 °F 9.0 °F 1022.9 in SSW 11.6 mph 16.3 mph 98 % 0.0 in
20:18 8.9 °F 9.0 °F 1022.9 in SSW 10.1 mph 15.8 mph 98 % 0.0 in
20:23 8.9 °F 9.0 °F 1022.9 in WSW 11.6 mph 15.8 mph 98 % 0.0 in
20:24 8.9 °F 9.0 °F 1022.9 in SW 9.3 mph 16.6 mph 98 % 0.0 in
20:26 8.8 °F 9.0 °F 1022.9 in SW 12.6 mph 16.6 mph 98 % 0.0 in
20:31 8.8 °F 9.0 °F 1022.9 in SSW 13.0 mph 16.6 mph 98 % 0.0 in
20:34 8.8 °F 9.0 °F 1022.9 in SW 13.0 mph 16.9 mph 98 % 0.0 in
20:39 8.8 °F 9.0 °F 1022.9 in SSW 11.9 mph 16.9 mph 98 % 0.0 in
20:43 8.8 °F 9.0 °F 1021.9 in SSW 12.6 mph 16.9 mph 98 % 0.0 in
20:47 8.8 °F 9.0 °F 1021.9 in WSW 8.7 mph 21.2 mph 98 % 0.0 in
20:50 8.8 °F 9.0 °F 1021.9 in SW 11.6 mph 21.2 mph 98 % 0.0 in
20:55 8.8 °F 9.0 °F 1021.9 in SSW 12.2 mph 16.9 mph 98 % 0.0 in
20:56 8.8 °F 9.0 °F 1021.9 in SW 13.7 mph 16.9 mph 98 % 0.0 in
21:01 8.8 °F 9.0 °F 1021.9 in SSW 14.0 mph 17.7 mph 98 % 0.0 in
21:03 8.8 °F 9.0 °F 1021.9 in WSW 12.2 mph 17.7 mph 98 % 0.0 in
21:08 8.8 °F 9.0 °F 1021.9 in WSW 12.6 mph 16.9 mph 98 % 0.0 in
21:10 8.8 °F 9.0 °F 1021.9 in SSW 9.3 mph 16.3 mph 98 % 0.0 in
21:15 8.9 °F 9.0 °F 1021.9 in SSW 12.6 mph 20.9 mph 98 % 0.0 in
21:19 8.9 °F 9.0 °F 1021.9 in SW 14.0 mph 20.9 mph 98 % 0.0 in
21:24 8.9 °F 9.0 °F 1021.9 in SW 20.1 mph 20.1 mph 98 % 0.0 in
21:27 9.0 °F 9.0 °F 1021.9 in SW 11.6 mph 20.1 mph 98 % 0.0 in
21:32 9.0 °F 9.0 °F 1021.9 in SSW 13.0 mph 20.1 mph 98 % 0.0 in
21:33 9.0 °F 9.0 °F 1021.9 in SW 12.2 mph 20.1 mph 98 % 0.0 in
21:34 9.0 °F 9.0 °F 1021.9 in SW 10.1 mph 20.1 mph 98 % 0.0 in
21:39 9.0 °F 9.0 °F 1021.9 in SW 13.7 mph 19.8 mph 98 % 0.0 in
21:44 9.1 °F 9.0 °F 1021.9 in SSW 12.6 mph 19.8 mph 98 % 0.0 in
21:49 9.1 °F 9.0 °F 1021.9 in SSW 12.2 mph 19.8 mph 98 % 0.0 in
21:54 9.0 °F 9.0 °F 1021.9 in SW 12.6 mph 17.2 mph 98 % 0.0 in
21:55 9.0 °F 9.0 °F 1021.9 in WSW 12.2 mph 17.2 mph 98 % 0.0 in
21:59 9.0 °F 9.0 °F 1020.9 in SSW 11.6 mph 15.8 mph 98 % 0.0 in
22:04 9.0 °F 9.0 °F 1020.9 in SSW 15.8 mph 20.9 mph 98 % 0.0 in
22:09 9.0 °F 9.0 °F 1020.9 in WSW 13.7 mph 20.9 mph 98 % 0.0 in
22:14 9.0 °F 9.0 °F 1021.9 in SSW 20.6 mph 20.9 mph 98 % 0.0 in
22:15 9.0 °F 9.0 °F 1021.9 in SW 13.0 mph 20.9 mph 98 % 0.0 in
22:17 9.0 °F 9.0 °F 1021.9 in SSW 12.6 mph 20.9 mph 98 % 0.0 in
22:21 9.0 °F 9.0 °F 1021.9 in WSW 11.6 mph 20.6 mph 98 % 0.0 in
22:27 9.0 °F 9.0 °F 1021.9 in SW 13.0 mph 20.6 mph 98 % 0.0 in
22:31 9.0 °F 9.0 °F 1021.9 in WSW 13.0 mph 20.6 mph 98 % 0.0 in
22:36 9.1 °F 9.0 °F 1021.9 in SSW 13.7 mph 20.6 mph 98 % 0.0 in
22:41 9.1 °F 9.0 °F 1020.9 in SW 13.7 mph 20.6 mph 98 % 0.0 in
22:44 9.1 °F 9.0 °F 1020.9 in SSW 15.8 mph 20.6 mph 98 % 0.0 in
22:48 9.1 °F 9.0 °F 1020.9 in SW 12.2 mph 16.9 mph 98 % 0.0 in
22:53 9.1 °F 9.0 °F 1020.9 in SSW 10.5 mph 19.8 mph 98 % 0.0 in
22:56 9.1 °F 9.0 °F 1020.9 in SW 9.3 mph 19.8 mph 98 % 0.0 in
22:59 9.1 °F 9.0 °F 1020.9 in SW 12.2 mph 19.8 mph 98 % 0.0 in
23:04 9.1 °F 9.0 °F 1020.9 in SW 16.9 mph 17.7 mph 98 % 0.0 in
23:06 9.1 °F 9.0 °F 1020.9 in SW 17.7 mph 17.7 mph 98 % 0.0 in
23:11 9.1 °F 9.0 °F 1020.9 in SSW 12.6 mph 17.7 mph 98 % 0.0 in
23:16 9.1 °F 9.0 °F 1020.9 in WSW 11.9 mph 17.7 mph 98 % 0.0 in
23:17 9.1 °F 9.0 °F 1020.9 in SW 10.5 mph 17.7 mph 98 % 0.0 in
23:19 9.1 °F 9.0 °F 1020.9 in WSW 10.5 mph 17.7 mph 98 % 0.0 in
23:24 9.1 °F 9.0 °F 1020.9 in SW 17.7 mph 17.7 mph 98 % 0.0 in
23:29 9.1 °F 9.0 °F 1020.9 in WSW 15.4 mph 20.1 mph 98 % 0.0 in
23:32 9.1 °F 9.0 °F 1020.9 in WSW 12.6 mph 20.1 mph 98 % 0.0 in
23:37 9.2 °F 9.0 °F 1020.9 in WSW 13.0 mph 20.1 mph 98 % 0.0 in
23:39 9.2 °F 9.0 °F 1020.9 in SW 11.6 mph 16.6 mph 98 % 0.0 in
23:40 9.2 °F 9.0 °F 1020.9 in SW 17.7 mph 20.9 mph 98 % 0.0 in
23:45 9.2 °F 9.0 °F 1019.9 in SW 11.9 mph 21.6 mph 98 % 0.0 in
23:46 9.2 °F 9.0 °F 1019.9 in SW 16.3 mph 21.6 mph 98 % 0.0 in
23:51 9.2 °F 9.0 °F 1019.9 in WSW 15.8 mph 21.6 mph 98 % 0.0 in
23:52 9.2 °F 9.0 °F 1019.9 in WSW 15.1 mph 21.6 mph 98 % 0.0 in
23:57 9.2 °F 9.0 °F 1019.9 in SW 13.7 mph 16.9 mph 98 % 0.0 in
23:59 9.2 °F 9.0 °F 1019.9 in SW 14.3 mph 16.9 mph 98 % 0.0 in
Le Gheer Warneton
Courtoisie de Weather Underground - 3 mb

Mise a jour : 18/02/2018 06:24:11
Généré par Cumulus 1.9.4 (1099)